GFSSW_925_rhum_159.txt.gz
RH
54 50 49 49 47 47 46 44 41 38 33 30 28 25 22 20 18 24 38 8 6 12 22 26 28 25 25 24 57 68 77 87 70 63 62 46 46 40 46 56 48 49 60 65 80
50 50 54 53 51 49 48 46 44 41 35 31 27 24 23 21 27 44 6 5 10 7 12 18 26 22 25 26 62 69 78 73 63 57 55 49 52 42 52 55 58 66 65 72 82
49 45 49 49 48 46 46 46 44 40 36 33 25 24 24 23 48 16 15 6 5 8 12 12 15 13 23 30 58 70 69 59 54 57 51 48 55 40 55 63 56 73 72 69 78
43 44 46 46 45 43 42 41 42 39 35 33 23 24 23 37 21 20 16 12 5 10 16 11 12 15 19 24 47 59 52 48 53 52 51 54 55 51 47 54 47 60 62 67 75
44 50 46 43 41 39 41 41 39 38 34 31 23 25 39 38 26 8 8 9 11 15 12 12 16 18 19 20 49 49 59 46 52 49 54 61 52 58 55 49 48 55 59 66 70
47 51 46 41 41 40 38 35 36 34 34 30 24 28 43 18 6 18 13 9 13 13 11 12 15 16 16 15 28 47 58 57 51 60 63 59 60 61 55 51 52 57 60 61 64
53 52 45 41 39 39 34 33 34 31 33 27 28 46 56 18 14 22 15 9 11 12 12 10 13 16 15 16 36 50 53 50 56 59 57 57 67 68 54 50 54 56 58 59 60
58 56 52 44 42 41 33 30 28 27 32 25 33 60 32 8 13 15 11 13 12 11 10 10 12 14 14 13 43 53 56 54 52 57 60 64 74 65 61 53 55 55 57 58 58
57 52 50 46 43 38 32 28 28 31 36 31 50 55 32 22 24 16 13 10 10 10 10 10 10 13 14 24 33 60 64 63 53 54 62 66 62 59 59 48 54 53 55 56 58
52 52 50 46 42 36 29 30 48 49 57 55 58 42 27 18 17 13 12 9 9 9 8 9 14 14 19 25 35 34 66 64 60 54 56 63 67 53 61 54 46 46 43 51 56
43 45 45 40 37 33 27 41 49 47 57 32 33 29 22 17 14 14 12 11 9 9 12 11 14 16 14 17 20 22 42 57 55 52 56 59 57 60 59 55 57 63 57 45 50
40 34 33 29 31 29 34 38 32 29 42 37 34 29 19 19 24 18 14 18 15 18 12 13 16 13 12 12 14 18 21 28 47 46 57 60 60 56 59 55 53 54 56 46 47
33 27 22 21 32 42 39 32 29 32 38 28 32 33 29 24 26 27 15 16 16 18 14 16 13 12 12 13 12 12 19 32 37 47 51 54 58 56 56 53 55 56 51 42 43
28 26 23 20 41 35 37 27 27 29 38 27 24 27 28 26 23 21 14 13 13 18 18 16 14 13 13 13 13 14 12 13 31 48 56 52 62 55 66 67 57 51 49 44 43
27 26 24 35 36 48 22 25 25 23 36 21 19 17 23 19 16 16 12 11 15 13 14 15 10 14 14 14 11 12 12 18 30 57 42 46 54 46 70 72 63 59 48 43 42
25 24 30 46 49 22 25 27 23 39 34 20 14 18 17 15 13 15 14 11 12 14 13 13 12 12 13 12 9 8 10 14 27 52 63 48 52 44 80 64 50 48 52 44 43
23 20 32 45 32 28 27 32 38 47 23 18 16 14 13 14 14 14 18 18 21 22 23 19 18 16 14 15 13 10 14 20 19 22 26 29 43 40 35 60 48 47 48 47 40
20 19 35 30 28 30 32 37 42 29 30 19 19 16 14 13 13 14 21 25 22 20 28 26 26 18 14 16 15 14 14 20 19 21 19 33 44 34 34 35 48 46 43 45 42
20 34 44 36 32 34 40 47 30 35 23 25 24 18 18 16 15 14 18 22 21 21 24 28 24 15 13 13 13 15 14 12 18 21 22 24 28 29 28 32 46 51 49 46 44
43 55 44 36 27 35 47 47 44 30 24 26 24 19 21 21 18 18 18 14 15 19 18 20 24 16 13 12 13 15 14 17 22 20 20 22 38 39 27 33 38 44 49 49 45
46 49 37 36 34 50 41 52 37 28 25 27 28 23 21 20 19 20 19 16 15 14 19 20 21 18 13 15 17 15 16 21 21 23 24 25 26 32 31 30 36 46 49 49 52
64 52 43 40 50 70 58 45 34 30 25 28 27 23 20 22 22 22 21 17 19 15 19 18 23 22 20 15 13 13 15 18 22 19 32 27 23 19 48 39 40 46 51 63 54
82 84 37 32 54 55 48 35 30 29 32 24 24 22 23 25 27 24 25 23 30 34 34 20 27 29 24 19 15 14 15 18 22 24 28 28 20 38 61 48 60 62 75 76 71
80 69 58 56 54 45 47 38 32 24 25 23 23 25 28 28 27 28 33 28 29 31 54 31 31 27 30 24 19 20 19 17 19 26 23 25 17 24 47 60 68 74 71 73 80
87 78 66 73 59 60 46 37 36 37 27 28 26 32 32 36 38 39 34 33 29 37 36 40 36 38 37 29 23 19 20 21 19 19 21 19 21 24 44 57 67 70 76 73 68
79 78 78 75 70 51 50 44 41 38 32 32 34 33 36 35 34 35 32 32 36 29 33 44 47 50 43 35 30 24 22 22 20 21 19 24 30 31 56 55 62 69 71 61 65
76 69 76 72 67 53 55 52 44 43 36 28 32 32 32 29 25 25 27 29 28 28 32 46 46 58 58 49 41 33 26 21 18 20 21 28 24 34 55 58 62 67 71 75 82

GFSSW_925_rhum_162.txt.gz
RH
54 50 53 53 52 50 49 47 45 41 36 27 25 23 21 20 20 24 34 8 7 14 19 21 29 28 36 33 58 62 76 80 68 68 59 47 53 47 50 59 52 55 69 71 83
52 46 48 49 48 45 44 44 44 41 36 28 23 23 23 22 27 42 6 6 9 22 22 32 36 29 28 28 63 66 78 64 60 54 55 52 50 49 57 58 63 77 79 88 92
43 50 52 45 43 41 41 42 42 40 37 29 22 23 24 24 38 12 16 7 10 17 13 18 23 23 25 43 59 67 66 58 60 59 52 50 52 44 58 63 61 74 86 89 93
43 51 52 45 42 41 39 40 38 38 35 30 22 24 24 38 17 20 18 12 8 11 13 13 13 16 18 22 34 57 56 52 54 55 55 56 53 55 52 52 48 65 74 80 87
49 53 52 45 42 40 39 36 36 36 33 32 24 25 38 31 23 6 7 14 8 13 14 13 15 18 21 20 50 57 58 47 51 54 56 57 54 59 53 50 57 63 69 77 82
56 55 51 46 43 41 42 37 33 31 32 32 25 28 42 16 8 15 15 16 11 22 12 13 14 18 17 16 30 42 58 58 55 54 57 56 58 53 57 53 62 66 72 74 78
52 50 49 48 46 43 39 34 30 28 29 30 29 48 54 17 14 26 19 11 18 14 13 11 14 16 17 15 41 51 56 51 59 64 59 55 58 64 62 55 62 65 68 69 71
48 46 47 48 46 43 37 32 26 25 30 28 39 59 32 10 17 22 20 16 16 13 11 11 12 15 15 14 45 52 52 58 53 66 60 64 72 64 64 60 64 63 63 64 66
44 43 42 40 40 38 32 29 38 34 34 37 56 52 28 23 24 17 13 12 13 12 10 10 12 14 16 26 35 50 65 63 54 60 67 71 74 59 61 58 62 61 62 62 66
38 36 29 29 28 30 30 46 50 49 55 60 63 41 24 20 20 17 16 10 9 10 9 10 16 16 21 24 25 30 64 61 61 55 67 78 78 67 62 58 60 60 60 62 64
31 27 23 20 22 27 40 58 50 46 69 36 34 22 21 18 16 16 14 10 10 10 13 12 14 16 15 16 18 25 46 45 48 48 62 71 71 67 64 57 57 60 60 60 60
33 25 22 18 23 35 37 38 35 34 45 40 39 33 24 20 23 17 14 16 16 19 12 14 16 13 13 14 14 16 18 21 25 48 60 57 63 59 62 61 54 52 53 50 50
32 28 22 18 37 45 38 32 34 35 44 30 35 36 30 23 26 24 17 18 18 21 15 17 13 13 13 14 14 14 16 18 22 50 54 52 53 62 61 61 54 53 48 50 45
32 27 23 20 43 35 38 29 31 36 36 25 26 27 30 27 23 21 15 15 15 22 17 15 13 13 14 14 15 16 13 13 15 43 56 48 68 48 59 68 60 54 54 54 48
30 26 23 28 32 44 28 27 30 26 34 21 22 21 29 23 19 22 14 13 17 17 17 20 14 16 17 16 13 15 11 12 17 48 47 58 65 54 72 71 67 60 54 50 47
28 26 25 40 48 21 24 29 25 37 34 21 19 20 26 18 15 17 15 13 13 14 13 17 12 12 13 13 12 10 12 17 29 66 76 58 64 61 42 43 48 57 53 50 46
25 23 30 37 30 28 28 31 35 44 23 21 19 16 20 18 16 18 20 20 22 22 23 21 19 15 14 15 14 13 17 25 22 38 67 39 55 51 27 37 46 56 56 50 46
24 27 38 31 29 29 32 36 36 25 31 22 22 19 16 15 15 15 23 26 22 24 30 28 28 20 16 18 18 15 19 26 22 25 21 36 43 38 31 32 38 53 51 52 48
23 39 42 40 31 37 38 43 25 30 26 28 26 18 19 16 16 16 24 27 24 22 26 29 26 17 16 14 14 16 16 15 22 22 24 24 24 20 22 28 36 49 56 54 49
35 50 45 39 34 36 35 37 38 35 28 29 26 23 22 21 19 18 19 15 16 22 21 24 28 19 15 13 14 16 15 19 24 21 22 23 24 27 20 16 22 42 61 59 53
32 49 47 40 39 44 33 42 39 32 28 30 30 30 22 21 20 20 19 17 20 18 22 23 24 19 14 17 19 16 18 21 23 26 27 28 25 28 27 21 25 31 47 60 59
51 51 44 39 51 76 57 47 38 32 27 30 30 32 24 23 22 21 21 26 32 18 21 20 28 30 24 18 15 16 18 20 24 22 30 27 23 15 24 29 49 47 44 60 64
70 79 40 37 60 59 49 38 32 31 30 28 26 26 25 26 27 25 26 31 30 34 35 21 29 33 28 22 17 17 18 19 24 26 34 27 21 18 39 47 52 60 57 65 64
82 64 62 60 63 48 50 42 34 29 28 29 26 27 28 30 32 30 34 29 29 32 48 38 33 29 34 27 23 22 18 19 20 27 27 26 18 16 15 21 43 67 68 71 78
89 82 75 74 63 60 49 41 39 40 32 33 30 34 38 37 40 40 33 32 29 35 38 42 41 41 39 39 32 26 22 20 20 21 24 23 22 18 18 30 47 68 72 73 85
87 87 85 80 74 53 55 50 45 45 38 33 35 34 33 36 35 39 32 33 35 27 29 45 48 52 46 37 42 33 26 24 24 21 22 20 26 23 34 60 66 70 73 74 79
83 77 84 72 71 58 57 54 48 48 39 32 38 35 33 33 38 30 30 28 28 31 34 42 47 54 56 52 53 45 34 27 23 23 24 30 24 23 38 59 60 68 76 72 80

GFSSW_925_rhum_165.txt.gz
RH
49 46 48 47 45 43 43 42 41 39 39 33 25 24 21 19 19 22 21 8 7 18 29 51 35 36 45 35 41 50 58 58 52 54 47 43 49 45 44 45 47 52 54 57 79
41 49 49 44 41 40 39 40 40 38 36 33 26 23 23 22 26 35 6 7 7 14 39 29 25 26 29 23 42 47 61 50 44 45 45 49 44 46 47 48 52 62 67 73 78
43 50 50 43 40 40 38 34 33 35 34 33 26 21 24 24 31 7 16 7 10 19 21 24 22 20 23 27 40 55 50 45 43 46 48 46 44 38 44 50 44 50 71 70 73
51 54 52 42 39 39 39 37 32 33 33 31 26 22 24 38 11 22 23 11 20 23 19 19 22 18 18 20 26 39 41 44 44 46 50 48 44 44 43 41 39 47 61 68 67
51 49 46 45 42 41 39 38 34 30 29 29 26 24 34 23 12 9 13 14 14 18 11 11 15 14 20 18 29 43 39 45 40 48 50 49 47 44 45 44 43 54 63 63 62
46 44 47 48 48 45 42 37 32 28 28 28 26 25 37 12 10 22 24 16 19 18 13 11 10 13 16 16 21 35 45 49 49 50 51 50 49 47 47 46 51 55 57 56 59
42 40 41 41 42 42 37 34 30 26 26 28 27 42 37 11 14 27 30 28 18 14 12 11 13 15 15 13 39 45 49 46 49 54 51 48 54 50 49 48 51 50 52 54 57
37 36 33 31 34 31 32 29 26 24 26 28 34 52 23 11 16 30 23 20 19 12 11 11 13 12 14 14 40 43 45 53 45 56 54 50 53 53 50 50 50 48 50 54 55
33 29 26 24 23 24 26 32 43 37 33 36 55 44 18 21 23 24 15 15 18 14 11 12 11 12 13 14 19 39 34 49 46 53 56 57 54 52 50 48 46 49 47 48 51
34 33 26 22 21 19 30 50 52 47 60 62 68 41 21 16 21 18 14 13 11 11 10 10 11 12 14 13 22 20 34 47 49 45 58 56 60 48 55 50 47 45 46 48 46
34 32 28 23 21 28 55 71 44 43 63 25 24 19 17 19 19 17 15 9 9 10 10 11 12 17 14 13 14 20 23 19 24 27 44 42 41 42 51 53 51 47 46 44 44
33 30 27 22 25 38 44 36 30 32 31 33 36 30 26 21 20 16 13 10 10 10 12 12 15 12 10 12 12 12 13 14 18 31 41 32 37 38 50 51 48 48 43 42 40
32 29 26 22 37 45 41 35 34 35 33 25 32 29 25 22 21 19 13 15 14 17 12 13 13 11 11 12 12 12 11 13 17 22 32 44 34 42 44 52 48 43 41 39 38
32 29 26 22 46 38 39 32 33 36 26 21 24 23 25 21 20 18 13 16 16 16 17 15 12 12 12 13 11 14 10 11 14 16 16 44 30 35 38 48 53 48 42 38 39
31 29 29 27 31 40 33 29 35 29 26 21 22 23 24 19 18 20 15 14 17 18 15 12 15 14 14 12 12 12 10 11 14 18 24 32 39 24 46 38 38 44 43 39 35
28 29 31 42 44 26 28 33 28 25 28 19 21 22 24 22 14 18 15 13 13 14 14 15 12 11 11 12 11 10 12 14 33 36 30 22 31 16 24 26 17 28 37 39 38
27 27 32 34 30 31 32 28 26 27 22 21 19 21 20 21 16 19 19 18 21 25 23 16 14 11 10 12 12 12 14 19 19 28 18 30 40 19 18 21 24 20 24 37 39
26 39 46 34 30 34 32 25 29 23 26 21 22 20 20 15 16 18 21 22 19 19 22 23 22 18 15 14 16 15 13 17 24 19 15 25 18 13 14 15 22 24 26 36 39
26 46 47 49 35 38 28 24 19 25 25 27 20 16 17 14 15 16 22 20 18 18 24 24 22 15 15 14 13 15 16 12 15 17 16 14 16 14 12 13 12 20 35 40 40
30 49 50 44 38 35 27 29 30 29 26 27 26 22 20 17 16 16 18 15 18 17 15 19 24 16 14 13 13 13 11 14 16 23 23 17 21 17 13 10 10 15 27 37 42
30 39 46 42 40 29 23 26 31 27 27 29 28 28 21 20 18 18 17 17 21 17 18 17 20 17 14 15 15 15 15 17 15 17 19 21 17 15 19 15 15 13 22 26 42
38 40 40 38 39 52 38 40 37 29 25 27 27 28 25 20 19 19 19 20 26 17 20 17 18 22 18 14 13 13 14 14 18 23 20 20 16 11 13 12 16 21 29 33 38
54 54 41 41 43 42 39 34 30 26 26 26 24 24 24 24 26 22 26 27 24 27 21 18 21 23 20 17 16 16 15 14 14 16 21 21 16 13 16 20 19 26 36 43 43
58 46 42 43 49 41 42 39 32 27 26 27 26 26 26 27 30 29 29 26 26 29 46 24 22 23 21 21 22 24 17 16 15 18 17 17 15 14 13 17 16 19 34 44 52
61 64 64 53 49 47 43 40 36 35 29 28 29 29 32 32 35 32 31 28 25 31 33 28 28 28 25 25 28 29 24 19 18 16 19 14 18 14 16 16 21 36 45 50 55
64 63 58 59 60 48 48 44 40 38 36 30 32 30 30 38 35 36 31 33 32 26 28 33 36 42 36 28 30 35 28 23 18 16 19 18 19 15 18 31 37 35 45 46 52
84 78 68 59 55 49 44 47 42 43 36 34 39 35 31 33 36 33 30 26 25 29 31 34 35 41 38 33 36 35 30 26 21 17 16 20 16 18 24 35 34 37 45 50 52

GFSSW_925_rhum_168.txt.gz
RH
40 44 44 40 40 40 39 39 38 37 36 32 25 21 21 18 18 29 15 10 10 13 48 33 24 24 33 26 26 31 37 41 38 37 38 34 36 33 32 34 35 37 36 37 55
40 45 43 40 38 39 38 36 32 34 34 31 25 20 21 20 38 16 11 8 8 15 29 20 16 20 24 20 25 28 34 34 30 32 34 36 34 36 36 34 37 43 42 49 55
45 48 43 39 38 39 38 38 34 32 33 31 27 20 20 20 20 4 14 7 8 17 21 15 13 16 22 18 22 27 30 28 28 31 34 34 35 31 32 35 31 36 47 49 52
46 44 44 45 41 40 39 38 36 33 28 29 27 20 21 46 8 20 21 9 10 24 16 15 14 18 20 18 14 24 24 30 33 35 36 36 35 33 33 33 28 32 41 46 46
43 42 43 43 44 42 41 39 35 31 27 29 27 21 33 17 8 13 12 13 35 20 13 12 14 14 17 17 14 26 30 34 34 34 37 39 39 36 35 34 30 35 40 43 42
38 37 36 36 37 38 36 35 32 29 26 27 27 24 33 10 11 30 35 25 27 13 9 8 9 8 14 14 13 26 35 35 38 38 38 41 38 37 33 34 36 37 39 38 40
35 32 29 26 28 30 28 30 29 27 24 25 27 47 24 8 15 35 31 18 15 14 8 9 9 9 12 14 20 25 28 29 35 39 39 38 43 41 33 34 38 35 34 35 37
35 33 29 25 22 20 22 25 27 24 23 26 28 50 16 14 19 31 21 17 14 10 9 9 9 10 11 10 16 20 23 32 33 41 43 41 37 42 36 36 38 33 32 34 36
35 34 32 29 24 20 19 34 40 34 28 29 48 31 11 20 14 23 13 13 9 9 9 10 9 10 11 14 15 17 22 26 28 36 40 37 28 44 37 36 35 34 31 33 35
35 33 30 29 26 21 25 47 49 59 65 65 48 29 14 10 15 18 11 11 9 8 9 9 10 12 13 14 18 16 20 23 26 27 28 27 25 23 36 36 35 34 32 31 32
33 33 30 28 25 32 59 71 43 43 37 16 16 13 12 15 16 13 9 9 9 8 11 10 13 16 14 14 14 14 17 18 16 13 21 18 17 21 26 37 36 35 34 30 29
34 33 30 27 23 37 61 27 23 25 20 20 20 19 17 16 15 13 8 6 10 12 8 11 12 11 12 13 13 15 15 15 14 20 23 16 17 19 22 33 34 35 33 31 28
33 33 31 27 30 47 37 27 30 27 22 19 19 18 16 16 13 15 12 6 6 8 9 9 9 8 11 12 15 15 15 15 14 12 13 18 16 18 26 30 33 31 31 28 28
32 33 32 27 52 38 27 30 32 30 21 19 18 17 18 14 16 12 12 9 10 8 7 8 7 10 11 13 12 14 11 11 11 14 18 18 18 15 16 22 33 33 31 29 28
35 39 34 27 48 23 30 30 31 27 21 16 18 18 15 14 14 15 10 11 13 11 11 8 9 10 10 10 10 12 9 10 10 14 17 14 19 13 15 14 14 18 28 26 26
40 36 36 50 57 30 34 33 26 22 22 17 17 19 19 14 13 15 12 11 11 12 11 8 9 9 9 7 8 8 9 10 13 16 21 13 14 12 11 14 10 9 12 21 24
39 34 36 48 22 35 33 24 21 18 17 16 16 16 14 15 14 15 16 17 17 19 16 12 11 9 9 9 8 9 9 13 18 18 20 13 16 14 10 9 8 8 9 10 20
33 45 44 41 42 42 30 22 23 15 17 15 15 15 15 13 13 15 16 16 14 13 16 17 17 12 10 10 10 10 8 11 22 18 13 14 14 11 8 7 7 9 11 11 18
30 49 46 43 41 42 23 20 14 17 18 18 15 15 16 12 12 14 16 15 13 14 17 16 17 12 12 10 9 11 14 8 11 10 13 11 10 8 8 8 6 7 10 14 21
40 34 31 42 41 30 21 20 17 19 19 18 20 16 15 13 14 14 15 13 13 12 12 14 20 12 11 11 11 12 9 12 11 18 20 13 14 14 11 9 7 8 9 11 21
32 27 33 36 37 23 19 16 17 18 20 20 20 19 15 14 13 13 13 12 11 12 12 13 15 14 12 13 13 13 14 11 10 11 16 17 13 9 11 9 8 8 8 12 16
26 28 34 35 27 24 20 19 39 20 19 19 21 21 20 14 15 14 14 12 18 12 15 13 14 18 15 10 10 11 11 10 13 16 14 14 14 8 9 8 8 8 10 15 24
32 32 32 31 31 28 28 24 24 21 19 20 19 18 18 20 20 15 15 18 18 15 15 14 15 18 17 13 12 14 12 11 10 10 16 16 14 8 9 10 9 10 12 19 27
36 32 30 29 30 30 31 29 28 21 21 21 22 19 20 21 20 22 19 20 19 18 42 17 13 18 17 15 16 17 14 12 13 14 14 14 13 11 10 10 9 11 14 18 33
34 37 44 34 35 34 33 33 31 29 23 21 24 23 24 26 22 23 20 20 20 42 24 18 22 18 17 15 15 16 17 16 17 15 17 13 12 11 10 10 9 16 23 28 34
39 38 31 32 36 40 44 32 33 29 31 29 29 24 24 28 26 27 25 24 22 21 22 19 27 24 28 20 19 19 17 17 17 16 16 14 14 10 10 13 16 14 20 25 30
46 47 43 43 32 33 29 33 34 34 30 27 31 31 28 26 28 26 23 22 21 26 25 26 25 30 34 22 22 28 21 20 18 17 16 17 14 11 12 14 18 21 24 28 30

GFSSW_925_rhum_171.txt.gz
RH
38 43 40 37 36 37 36 36 33 31 34 32 27 21 19 18 16 26 14 12 12 10 38 26 20 18 23 20 18 20 53 49 38 49 32 25 33 24 23 25 27 27 28 30 44
44 46 42 38 36 37 37 36 35 31 32 31 28 22 18 19 36 14 12 10 9 9 30 18 14 14 21 17 17 23 34 31 26 27 27 29 27 26 29 26 29 32 30 35 40
45 44 44 42 42 39 39 38 37 35 32 28 26 22 18 20 24 8 12 10 7 10 19 15 11 12 19 15 16 20 29 26 25 26 28 27 28 25 28 45 29 33 36 35 38
41 40 40 41 41 42 39 40 38 34 30 26 25 21 19 46 11 20 15 11 7 22 18 14 11 14 19 16 13 22 23 26 29 29 28 29 28 30 27 30 23 27 32 32 43
35 34 33 32 32 35 36 34 34 31 29 26 25 21 31 16 8 21 13 8 16 28 13 11 12 14 17 14 13 19 25 27 28 27 28 30 32 31 29 27 24 28 31 32 43
35 32 30 26 23 25 29 28 28 29 28 24 24 22 33 12 8 17 25 20 15 19 12 10 10 10 11 13 13 18 26 26 28 28 29 31 30 30 28 27 28 30 29 30 34
35 35 34 32 27 21 19 20 24 25 25 23 25 41 23 9 9 20 20 15 13 14 10 8 8 9 10 12 13 17 22 22 27 28 28 28 38 32 27 28 30 30 27 28 29
36 34 33 31 28 23 18 18 22 25 23 22 25 44 17 11 10 21 18 13 12 12 9 8 8 10 11 10 11 16 16 33 26 27 31 31 49 32 28 29 31 28 26 28 29
36 34 33 30 28 24 18 23 35 30 25 25 46 30 12 13 8 17 15 12 9 10 9 9 9 10 11 13 13 12 18 21 27 24 27 27 28 32 27 29 29 28 25 27 29
37 34 33 31 28 23 18 38 43 56 48 48 32 20 10 8 6 15 11 10 6 6 8 9 10 12 12 12 15 13 14 18 21 23 20 18 20 17 28 29 29 28 26 26 28
35 34 33 30 26 23 50 57 42 40 32 16 13 10 7 7 12 12 10 9 7 6 9 9 11 12 11 11 10 12 13 15 15 12 15 17 16 13 17 28 29 28 28 25 25
33 33 32 30 24 30 50 24 18 18 18 16 13 10 11 9 12 10 8 8 10 9 7 8 11 8 8 10 11 12 12 13 12 14 14 14 13 13 16 22 26 27 26 26 23
32 34 34 28 24 44 30 20 21 19 18 14 12 13 11 11 8 11 7 6 8 10 7 8 7 6 7 10 12 11 12 11 13 12 11 12 14 11 17 19 22 24 24 24 24
30 42 37 26 48 24 23 21 22 20 22 15 14 12 11 10 9 8 9 6 6 6 6 6 5 6 7 10 9 12 9 10 11 13 16 13 16 12 13 20 21 23 24 23 23
31 44 37 27 50 19 21 21 20 20 26 13 13 12 11 11 9 10 9 8 9 7 6 7 6 6 8 8 7 9 8 9 9 11 13 13 15 11 11 13 13 20 20 19 20
34 38 35 40 45 20 22 21 20 22 21 14 13 14 14 11 10 10 10 9 8 10 8 8 6 6 6 6 6 6 7 7 8 9 16 13 13 11 10 12 10 9 14 17 17
35 34 37 37 18 18 20 19 21 18 13 14 14 12 13 13 11 13 11 12 14 17 15 10 8 6 6 8 6 6 7 10 11 11 13 10 12 11 9 8 8 8 8 8 13
30 43 33 29 24 22 22 21 26 12 12 10 11 11 13 11 11 12 12 13 11 11 11 14 13 9 7 8 8 8 7 9 14 13 13 11 14 10 7 6 6 6 6 8 9
32 40 31 27 27 25 21 22 15 12 12 12 12 13 12 11 11 11 13 13 11 11 14 13 14 10 8 8 8 8 10 6 7 7 10 10 9 7 6 7 6 6 7 8 10
38 23 21 24 26 23 22 23 13 12 13 13 16 11 13 12 12 12 12 11 11 10 9 11 16 11 10 9 9 9 7 11 10 15 17 12 12 11 10 9 7 7 7 9 11
38 22 22 22 24 21 21 14 12 10 13 14 14 13 13 11 10 11 11 10 10 10 10 11 12 12 10 12 12 11 12 10 9 10 13 14 12 9 10 9 8 7 7 7 10
24 22 23 22 23 18 17 14 41 13 14 13 14 16 15 13 12 11 11 10 9 9 12 10 11 15 13 9 8 9 11 10 13 15 11 12 11 6 8 8 8 8 7 8 14
24 19 23 21 26 20 18 20 17 16 15 15 14 12 12 15 17 13 10 13 12 11 12 11 13 16 15 10 9 11 10 9 9 9 13 14 12 7 8 9 8 8 8 11 15
26 22 21 21 19 25 23 23 21 17 17 16 17 15 16 16 14 17 14 12 13 12 39 17 13 14 14 13 12 15 12 11 10 12 12 12 11 10 9 9 9 8 10 12 18
24 24 26 25 24 24 22 23 24 23 18 17 20 18 18 21 17 16 15 14 15 32 19 16 19 16 13 12 12 13 13 13 14 13 16 13 12 10 10 10 9 9 10 16 21
29 29 25 22 21 26 31 24 24 22 21 24 23 19 19 23 22 22 22 18 17 16 19 16 22 19 20 15 15 16 14 13 12 12 13 13 14 10 9 10 10 11 11 16 19
29 29 30 27 21 23 21 23 25 24 23 22 23 26 26 23 23 21 20 19 19 20 22 21 20 22 26 18 18 22 18 16 15 13 14 16 13 10 10 11 11 13 16 20 25

GFSSW_925_rhum_174.txt.gz
RH
43 46 39 36 36 36 36 36 35 34 30 31 29 23 20 17 16 18 15 12 14 13 11 28 26 17 17 21 16 28 67 59 56 46 59 31 36 23 19 24 23 25 28 40 46
43 42 41 41 40 39 38 38 37 35 32 29 27 24 19 18 29 18 14 13 11 10 22 23 16 13 17 19 16 22 51 34 25 42 40 25 29 28 32 33 31 31 36 39 46
39 38 38 38 39 39 38 37 36 35 31 28 26 24 18 21 28 10 13 12 10 8 17 16 12 11 16 16 14 18 27 25 28 24 25 29 27 24 35 60 60 36 32 36 45
32 31 29 28 28 29 33 32 30 29 28 28 25 24 19 49 19 20 13 12 10 12 18 16 12 13 17 16 12 20 21 24 26 25 26 28 25 30 32 34 28 27 29 38 45
35 33 32 28 25 22 23 28 27 27 26 27 24 24 32 24 10 15 10 8 10 14 16 14 12 13 16 13 12 14 22 23 24 24 24 24 27 30 29 24 22 26 27 36 40
37 35 34 33 31 24 19 18 20 24 24 24 24 24 38 18 8 18 16 14 10 12 16 10 10 10 12 11 12 14 21 23 24 24 24 30 34 26 27 23 26 28 26 37 38
38 36 34 32 28 26 21 17 18 21 23 23 23 42 27 15 7 10 17 13 10 12 13 9 8 8 9 11 10 14 20 24 65 24 26 31 51 38 29 25 28 28 24 38 38
39 37 35 33 30 26 23 17 17 24 24 22 24 49 24 9 9 10 16 13 9 11 12 9 7 8 10 9 10 11 15 26 42 28 27 36 70 41 33 27 30 27 24 26 38
38 37 35 34 32 27 22 16 26 29 24 23 36 37 16 10 8 8 14 10 9 9 11 8 8 9 10 13 13 11 16 28 33 21 22 24 37 37 24 26 28 26 24 26 26
36 34 33 34 32 26 20 19 42 38 28 45 38 26 15 10 6 7 12 10 8 6 9 9 9 11 11 13 16 13 13 14 19 26 18 16 17 25 25 26 26 26 25 26 28
32 31 30 31 31 25 25 54 43 43 37 17 14 10 7 6 5 9 10 9 7 6 8 9 11 12 11 10 10 11 12 14 12 12 14 16 16 14 22 24 26 26 26 25 26
31 29 30 31 29 24 36 31 16 15 19 22 13 11 8 6 10 10 9 9 9 8 7 8 11 8 7 8 10 10 12 12 10 10 13 14 13 12 11 23 24 26 24 25 23
31 30 32 32 26 32 32 19 18 16 17 12 15 10 9 8 8 9 7 8 9 10 8 8 7 6 7 7 9 11 12 11 12 11 11 11 14 14 11 16 20 22 22 22 23
30 33 33 29 45 25 22 21 18 16 21 14 14 11 9 9 10 6 7 6 6 7 8 7 5 6 6 7 7 11 8 9 10 12 15 11 19 13 13 19 20 20 21 20 21
29 39 35 29 57 20 17 16 16 16 33 13 11 8 9 11 8 7 8 6 7 6 5 6 6 6 6 6 6 9 7 8 9 11 11 11 14 13 10 16 21 20 18 19 19
29 39 33 39 40 19 17 16 16 23 23 13 12 13 12 11 9 8 9 8 6 7 8 7 5 6 6 5 6 5 6 8 8 8 12 10 12 14 11 12 11 11 18 17 17
30 33 36 45 19 15 13 16 22 22 12 13 14 11 12 12 10 10 11 12 12 14 13 10 9 6 6 7 6 6 7 11 12 11 11 7 10 13 10 9 9 9 9 15 16
31 30 39 24 21 17 16 20 29 16 10 9 9 10 13 11 10 10 12 12 10 11 12 14 14 9 6 7 8 8 7 9 16 12 10 11 13 11 7 6 6 6 6 7 10
29 36 38 27 22 17 19 25 20 13 10 11 10 11 12 10 10 11 12 12 10 10 14 13 12 8 7 6 7 8 10 6 7 7 9 8 9 8 7 7 7 6 6 6 8
47 25 20 19 20 18 23 28 16 12 10 11 14 12 12 11 11 11 11 10 11 9 9 11 15 10 9 8 8 9 7 10 10 18 18 11 13 12 11 9 8 7 6 7 10
41 23 19 17 18 19 23 17 12 9 10 12 12 12 12 11 10 11 11 9 8 9 9 10 11 12 10 11 12 11 12 10 9 11 15 14 12 11 11 10 9 7 7 7 10
28 22 20 17 21 18 20 16 20 11 10 13 11 11 14 14 13 11 10 9 7 8 11 10 11 14 12 9 8 9 10 11 14 17 13 13 12 7 8 8 8 8 8 8 14
30 19 19 18 24 20 17 15 13 15 14 12 13 12 11 12 15 14 12 9 9 9 12 10 13 16 14 11 9 10 10 9 9 10 18 14 12 10 10 9 9 8 9 17 14
34 22 18 19 17 20 21 22 19 15 16 15 15 14 15 16 13 16 15 10 11 10 34 15 14 16 16 14 10 13 11 11 10 13 12 11 11 9 13 12 11 9 13 11 19
30 22 20 25 20 23 23 22 21 21 16 16 18 18 18 20 18 17 13 12 12 34 14 13 18 16 14 12 12 12 12 12 14 13 14 12 13 11 15 12 11 13 13 13 16
29 30 25 25 20 20 22 21 20 18 18 19 20 19 18 21 19 22 20 21 18 14 17 15 23 19 19 14 13 14 12 12 12 12 12 12 13 9 11 13 12 12 12 15 23
31 28 28 31 22 20 19 20 22 21 22 20 21 22 23 23 24 23 20 19 19 21 21 20 21 24 26 18 17 20 16 15 14 13 14 16 13 10 12 14 12 25 28 29 22